| time (UTC) | temp F | wind direction | speed MPH | gust MPH | rain 1hr in | rain 24hr in | rain mn in | humidity % | barometer mb |
| 20260904195516 | 54 | 0 | 0.0 | 9.0 | 0.00 | 0.00 | 0.00 | 71 | 1005.1 |
| 20260904195019 | 54 | 0 | 0.0 | 9.0 | 0.00 | 0.00 | 0.00 | 70 | 1005.1 |
| 20260904194536 | 54 | 0 | 0.0 | 10.0 | 0.00 | 0.00 | 0.00 | 70 | 1004.9 |
| 20260904194018 | 54 | 0 | 1.0 | 11.0 | 0.00 | 0.00 | 0.00 | 69 | 1004.8 |
| 20260904193517 | 55 | 0 | 0.0 | 11.0 | 0.00 | 0.00 | 0.00 | 69 | 1004.6 |
| 20260904193034 | 55 | 0 | 3.0 | 12.0 | 0.00 | 0.00 | 0.00 | 68 | 1004.7 |
| 20260904192516 | 55 | 0 | 0.0 | 13.0 | 0.00 | 0.00 | 0.00 | 68 | 1004.6 |
| 20260904192015 | 55 | 240 | 2.0 | 13.0 | 0.00 | 0.00 | 0.00 | 68 | 1004.4 |
| 20260904191543 | 55 | 0 | 0.0 | 8.0 | 0.00 | 0.00 | 0.00 | 68 | 1004.4 |
| 20260904191015 | 55 | 0 | 0.0 | 11.0 | 0.00 | 0.00 | 0.00 | 67 | 1004.4 |
| 20260904190515 | 56 | 276 | 0.0 | 11.0 | 0.00 | 0.00 | 0.00 | 67 | 1004.2 |
| 20260904190040 | 56 | 0 | 1.0 | 15.0 | 0.00 | 0.00 | 0.00 | 66 | 1004.2 |
| 20260904185516 | 56 | 0 | 3.0 | 15.0 | 0.00 | 0.00 | 0.00 | 67 | 1004.2 |
| 20260904185018 | 56 | 310 | 1.0 | 13.0 | 0.00 | 0.00 | 0.00 | 66 | 1003.9 |
| 20260904184541 | 56 | 288 | 1.0 | 11.0 | 0.00 | 0.00 | 0.00 | 66 | 1003.8 |
| 20260904184016 | 56 | 0 | 0.0 | 12.0 | 0.00 | 0.00 | 0.00 | 66 | 1003.7 |
| 20260904183516 | 57 | 0 | 0.0 | 12.0 | 0.00 | 0.00 | 0.00 | 66 | 1003.8 |
| 20260904183034 | 57 | 233 | 0.0 | 9.0 | 0.00 | 0.00 | 0.00 | 65 | 1003.7 |
| 20260904182515 | 57 | 283 | 0.0 | 11.0 | 0.00 | 0.00 | 0.00 | 65 | 1003.6 |
| 20260904182027 | 57 | 0 | 0.0 | 11.0 | 0.00 | 0.00 | 0.00 | 64 | 1003.4 |
| 20260904181536 | 58 | 299 | 2.0 | 12.0 | 0.00 | 0.00 | 0.00 | 63 | 1003.3 |
| 20260904181018 | 58 | 0 | 2.0 | 12.0 | 0.00 | 0.00 | 0.00 | 63 | 1003.3 |
| 20260904180518 | 58 | 281 | 4.0 | 12.0 | 0.00 | 0.00 | 0.00 | 62 | 1003.1 |
| 20260904180033 | 59 | 0 | 2.0 | 17.0 | 0.00 | 0.00 | 0.00 | 62 | 1003.1 |
| 20260904175517 | 59 | 0 | 3.0 | 17.0 | 0.00 | 0.00 | 0.00 | 62 | 1002.9 |
| 20260904175015 | 59 | 272 | 1.0 | 18.0 | 0.00 | 0.00 | 0.00 | 62 | 1002.8 |
| 20260904174537 | 59 | 272 | 5.0 | 18.0 | 0.00 | 0.00 | 0.00 | 62 | 1002.8 |
| 20260904174018 | 60 | 281 | 4.0 | 19.0 | 0.00 | 0.00 | 0.00 | 62 | 1002.6 |
| 20260904173516 | 60 | 321 | 5.0 | 19.0 | 0.00 | 0.00 | 0.00 | 61 | 1002.6 |
| 20260904173041 | 60 | 288 | 7.0 | 19.0 | 0.00 | 0.00 | 0.00 | 61 | 1002.6 |
| 20260904172516 | 60 | 295 | 4.0 | 19.0 | 0.00 | 0.00 | 0.00 | 61 | 1002.6 |
| 20260904172017 | 60 | 274 | 5.0 | 15.0 | 0.00 | 0.00 | 0.00 | 62 | 1002.6 |
| 20260904171531 | 60 | 0 | 8.0 | 14.0 | 0.00 | 0.00 | 0.00 | 62 | 1002.4 |
| 20260904171015 | 60 | 245 | 3.0 | 16.0 | 0.00 | 0.00 | 0.00 | 64 | 1002.4 |
| 20260904170519 | 60 | 287 | 4.0 | 16.0 | 0.00 | 0.00 | 0.00 | 63 | 1002.3 |
| 20260904170043 | 60 | 292 | 9.0 | 18.0 | 0.00 | 0.00 | 0.00 | 63 | 1002.2 |
| 20260904165518 | 60 | 293 | 6.0 | 21.0 | 0.00 | 0.00 | 0.00 | 63 | 1002.2 |
| 20260904165015 | 60 | 298 | 6.0 | 21.0 | 0.00 | 0.00 | 0.00 | 63 | 1002.1 |
| 20260904164533 | 60 | 292 | 9.0 | 21.0 | 0.00 | 0.00 | 0.00 | 62 | 1001.9 |
| 20260904164015 | 60 | 286 | 7.0 | 17.0 | 0.00 | 0.00 | 0.00 | 62 | 1002.0 |
| 20260904163516 | 60 | 263 | 4.0 | 17.0 | 0.00 | 0.00 | 0.00 | 63 | 1001.9 |
| 20260904163035 | 61 | 291 | 6.0 | 20.0 | 0.00 | 0.00 | 0.00 | 61 | 1001.9 |
| 20260904162520 | 61 | 303 | 5.0 | 28.0 | 0.00 | 0.00 | 0.00 | 61 | 1001.7 |
| 20260904162020 | 61 | 339 | 7.0 | 28.0 | 0.00 | 0.00 | 0.00 | 61 | 1001.7 |
| 20260904161534 | 61 | 300 | 6.0 | 19.0 | 0.00 | 0.00 | 0.00 | 61 | 1001.6 |
| 20260904161016 | 61 | 272 | 4.0 | 20.0 | 0.00 | 0.00 | 0.00 | 61 | 1001.6 |
| 20260904160521 | 61 | 0 | 4.0 | 20.0 | 0.00 | 0.00 | 0.00 | 59 | 1001.7 |
| 20260904160033 | 62 | 13 | 8.0 | 20.0 | 0.00 | 0.00 | 0.00 | 59 | 1001.4 |
| 20260904155520 | 62 | 284 | 2.0 | 16.0 | 0.00 | 0.00 | 0.00 | 59 | 1001.6 |
| 20260904155017 | 62 | 319 | 6.0 | 19.0 | 0.00 | 0.00 | 0.00 | 59 | 1001.5 |
| 20260904154534 | 62 | 293 | 4.0 | 19.0 | 0.00 | 0.00 | 0.00 | 60 | 1001.4 |
| 20260904154020 | 62 | 267 | 7.0 | 19.0 | 0.00 | 0.00 | 0.00 | 59 | 1001.3 |
| 20260904153517 | 62 | 284 | 8.0 | 19.0 | 0.00 | 0.00 | 0.00 | 59 | 1001.2 |
| 20260904153043 | 62 | 273 | 4.0 | 16.0 | 0.00 | 0.00 | 0.00 | 59 | 1001.1 |
| 20260904152518 | 62 | 300 | 7.0 | 22.0 | 0.00 | 0.00 | 0.00 | 59 | 1001.0 |
| 20260904152018 | 62 | 276 | 7.0 | 22.0 | 0.00 | 0.00 | 0.00 | 59 | 1000.9 |
| 20260904151537 | 62 | 315 | 7.0 | 17.0 | 0.00 | 0.00 | 0.00 | 59 | 1001.0 |
| 20260904151016 | 62 | 294 | 4.0 | 19.0 | 0.00 | 0.00 | 0.00 | 59 | 1000.9 |
| 20260904150521 | 62 | 291 | 6.0 | 19.0 | 0.00 | 0.00 | 0.00 | 60 | 1000.9 |
| 20260904150036 | 62 | 301 | 11.0 | 26.0 | 0.00 | 0.00 | 0.00 | 59 | 1001.0 |
| 20260904145516 | 63 | 303 | 10.0 | 26.0 | 0.00 | 0.00 | 0.00 | 58 | 1001.0 |
| 20260904145015 | 63 | 323 | 7.0 | 25.0 | 0.00 | 0.00 | 0.00 | 58 | 1000.8 |
| 20260904144542 | 63 | 288 | 7.0 | 23.0 | 0.00 | 0.00 | 0.00 | 59 | 1000.7 |
| 20260904144022 | 63 | 273 | 6.0 | 22.0 | 0.00 | 0.00 | 0.00 | 58 | 1000.5 |
| 20260904143517 | 63 | 0 | 8.0 | 18.0 | 0.00 | 0.00 | 0.00 | 57 | 1000.6 |
| 20260904143036 | 63 | 319 | 2.0 | 21.0 | 0.00 | 0.00 | 0.00 | 59 | 1000.5 |
| 20260904142519 | 63 | 286 | 9.0 | 21.0 | 0.00 | 0.00 | 0.00 | 57 | 1000.3 |
| 20260904142015 | 63 | 254 | 5.0 | 19.0 | 0.00 | 0.00 | 0.00 | 58 | 1000.3 |
| 20260904141537 | 63 | 311 | 7.0 | 19.0 | 0.00 | 0.00 | 0.00 | 58 | 1000.2 |
| 20260904141018 | 64 | 0 | 4.0 | 20.0 | 0.00 | 0.00 | 0.00 | 57 | 1000.1 |
| 20260904140515 | 64 | 315 | 7.0 | 20.0 | 0.00 | 0.00 | 0.00 | 58 | 1000.0 |
| 20260904140047 | 64 | 259 | 6.0 | 18.0 | 0.00 | 0.00 | 0.00 | 58 | 1000.0 |
| 20260904135516 | 64 | 0 | 6.0 | 16.0 | 0.00 | 0.00 | 0.00 | 59 | 1000.1 |
| 20260904135016 | 63 | 263 | 5.0 | 21.0 | 0.00 | 0.00 | 0.00 | 61 | 1000.1 |
| 20260904134536 | 63 | 296 | 7.0 | 21.0 | 0.00 | 0.00 | 0.00 | 60 | 1000.4 |
| 20260904134017 | 64 | 291 | 4.0 | 18.0 | 0.00 | 0.00 | 0.00 | 58 | 1000.2 |
| 20260904133515 | 64 | 280 | 6.0 | 16.0 | 0.00 | 0.00 | 0.00 | 57 | 999.8 |
| 20260904133035 | 63 | 267 | 7.0 | 16.0 | 0.00 | 0.00 | 0.00 | 59 | 999.9 |
| 20260904132517 | 62 | 0 | 4.0 | 24.0 | 0.00 | 0.00 | 0.00 | 61 | 999.8 |
| 20260904132021 | 62 | 281 | 6.0 | 24.0 | 0.00 | 0.00 | 0.00 | 60 | 999.8 |
| 20260904131532 | 62 | 296 | 9.0 | 24.0 | 0.00 | 0.00 | 0.00 | 59 | 1000.0 |
| 20260904131016 | 62 | 268 | 5.0 | 20.0 | 0.00 | 0.00 | 0.00 | 59 | 999.8 |
| 20260904130522 | 63 | 277 | 7.0 | 19.0 | 0.00 | 0.00 | 0.00 | 57 | 999.5 |
| 20260904130036 | 64 | 302 | 5.0 | 22.0 | 0.00 | 0.00 | 0.00 | 57 | 999.4 |
| 20260904125515 | 65 | 263 | 5.0 | 22.0 | 0.00 | 0.00 | 0.00 | 57 | 999.2 |
| 20260904125016 | 65 | 268 | 6.0 | 22.0 | 0.00 | 0.00 | 0.00 | 56 | 999.1 |
| 20260904124534 | 65 | 307 | 4.0 | 19.0 | 0.00 | 0.00 | 0.00 | 59 | 999.3 |
| 20260904124018 | 65 | 0 | 7.0 | 20.0 | 0.00 | 0.00 | 0.00 | 57 | 999.3 |
| 20260904123518 | 64 | 299 | 6.0 | 20.0 | 0.00 | 0.00 | 0.00 | 56 | 999.2 |
| 20260904123034 | 65 | 263 | 5.0 | 23.0 | 0.00 | 0.00 | 0.00 | 57 | 999.0 |
| 20260904122520 | 64 | 277 | 9.0 | 23.0 | 0.00 | 0.00 | 0.00 | 57 | 999.0 |
| 20260904122018 | 64 | 294 | 9.0 | 23.0 | 0.00 | 0.00 | 0.00 | 56 | 998.8 |
| 20260904121534 | 64 | 296 | 10.0 | 29.0 | 0.00 | 0.00 | 0.00 | 56 | 998.8 |
| 20260904121016 | 64 | 291 | 7.0 | 29.0 | 0.00 | 0.00 | 0.00 | 56 | 998.7 |
| 20260904120516 | 64 | 295 | 9.0 | 24.0 | 0.00 | 0.00 | 0.00 | 55 | 998.8 |
| 20260904120031 | 65 | 306 | 9.0 | 24.0 | 0.00 | 0.00 | 0.00 | 55 | 998.7 |
| 20260904115517 | 65 | 303 | 4.0 | 19.0 | 0.00 | 0.00 | 0.00 | 57 | 998.6 |
| 20260904115016 | 65 | 273 | 6.0 | 19.0 | 0.00 | 0.00 | 0.00 | 56 | 998.7 |
| 20260904114537 | 65 | 0 | 4.0 | 15.0 | 0.00 | 0.00 | 0.00 | 57 | 998.7 |
| 20260904114018 | 64 | 0 | 2.0 | 16.0 | 0.00 | 0.00 | 0.00 | 59 | 998.6 |
| 20260904113517 | 64 | 288 | 3.0 | 21.0 | 0.00 | 0.00 | 0.00 | 59 | 998.7 |
| 20260904113037 | 64 | 292 | 7.0 | 21.0 | 0.00 | 0.00 | 0.00 | 58 | 998.8 |
| 20260904112517 | 64 | 286 | 5.0 | 20.0 | 0.00 | 0.00 | 0.00 | 58 | 998.8 |
| 20260904112016 | 64 | 306 | 4.0 | 20.0 | 0.00 | 0.00 | 0.00 | 58 | 998.7 |
| 20260904111532 | 64 | 273 | 8.0 | 22.0 | 0.00 | 0.00 | 0.00 | 57 | 998.5 |
| 20260904111017 | 64 | 299 | 3.0 | 22.0 | 0.00 | 0.00 | 0.00 | 60 | 998.6 |
| 20260904110517 | 63 | 337 | 7.0 | 22.0 | 0.00 | 0.00 | 0.00 | 59 | 998.5 |
| 20260904110035 | 63 | 292 | 4.0 | 21.0 | 0.00 | 0.00 | 0.00 | 59 | 998.3 |
| 20260904105519 | 62 | 283 | 7.0 | 21.0 | 0.00 | 0.00 | 0.00 | 59 | 998.3 |
| 20260904105015 | 62 | 275 | 3.0 | 15.0 | 0.00 | 0.00 | 0.00 | 65 | 998.3 |
| 20260904104533 | 62 | 296 | 6.0 | 15.0 | 0.00 | 0.00 | 0.00 | 63 | 998.3 |
| 20260904104016 | 62 | 0 | 3.0 | 13.0 | 0.00 | 0.00 | 0.00 | 62 | 998.0 |
| 20260904103519 | 63 | 287 | 5.0 | 13.0 | 0.00 | 0.00 | 0.00 | 62 | 997.9 |
| 20260904103034 | 64 | 0 | 1.0 | 10.0 | 0.00 | 0.00 | 0.00 | 66 | 997.7 |
| 20260904102518 | 64 | 267 | 0.0 | 13.0 | 0.00 | 0.00 | 0.00 | 66 | 997.7 |
| 20260904102017 | 64 | 0 | 2.0 | 18.0 | 0.00 | 0.00 | 0.00 | 67 | 997.6 |
| 20260904101534 | 64 | 250 | 5.0 | 18.0 | 0.00 | 0.00 | 0.00 | 67 | 997.4 |
| 20260904101015 | 63 | 0 | 3.0 | 15.0 | 0.00 | 0.00 | 0.00 | 66 | 997.5 |
| 20260904100515 | 64 | 229 | 3.0 | 16.0 | 0.00 | 0.00 | 0.00 | 66 | 997.4 |
| 20260904100032 | 64 | 311 | 3.0 | 16.0 | 0.00 | 0.00 | 0.00 | 65 | 997.3 |
| 20260904095519 | 64 | 282 | 2.0 | 15.0 | 0.00 | 0.00 | 0.00 | 65 | 997.3 |
| 20260904095015 | 64 | 0 | 2.0 | 13.0 | 0.00 | 0.00 | 0.00 | 67 | 997.3 |
| 20260904094541 | 63 | 257 | 1.0 | 13.0 | 0.00 | 0.00 | 0.00 | 69 | 997.2 |
| 20260904094019 | 62 | 0 | 3.0 | 14.0 | 0.00 | 0.00 | 0.00 | 68 | 997.4 |
| 20260904093516 | 61 | 245 | 3.0 | 14.0 | 0.00 | 0.00 | 0.00 | 70 | 997.3 |
| 20260904093040 | 61 | 247 | 1.0 | 13.0 | 0.00 | 0.00 | 0.00 | 71 | 997.3 |
| 20260904092517 | 60 | 0 | 1.0 | 14.0 | 0.00 | 0.00 | 0.00 | 70 | 997.4 |
| 20260904092017 | 61 | 0 | 3.0 | 14.0 | 0.00 | 0.00 | 0.00 | 69 | 997.5 |
| 20260904091536 | 60 | 0 | 2.0 | 12.0 | 0.00 | 0.00 | 0.00 | 71 | 997.5 |
| 20260904091019 | 60 | 0 | 3.0 | 16.0 | 0.00 | 0.00 | 0.00 | 72 | 997.5 |
| 20260904090518 | 60 | 0 | 2.0 | 16.0 | 0.00 | 0.00 | 0.00 | 72 | 997.5 |
| 20260904090033 | 59 | 0 | 2.0 | 16.0 | 0.00 | 0.00 | 0.00 | 72 | 997.4 |
| 20260904085518 | 58 | 237 | 1.0 | 14.0 | 0.00 | 0.00 | 0.00 | 74 | 997.4 |
| 20260904085016 | 58 | 278 | 4.0 | 16.0 | 0.00 | 0.00 | 0.00 | 73 | 997.5 |
| 20260904084536 | 58 | 256 | 5.0 | 16.0 | 0.00 | 0.00 | 0.00 | 73 | 997.4 |
| 20260904084018 | 58 | 0 | 3.0 | 12.0 | 0.00 | 0.00 | 0.00 | 73 | 997.6 |
| 20260904083517 | 58 | 263 | 2.0 | 12.0 | 0.00 | 0.00 | 0.00 | 76 | 997.6 |
| 20260904083035 | 57 | 0 | 1.0 | 12.0 | 0.00 | 0.00 | 0.00 | 76 | 997.7 |
| 20260904082515 | 57 | 0 | 2.0 | 19.0 | 0.00 | 0.00 | 0.00 | 76 | 997.8 |
| 20260904082018 | 57 | 236 | 3.0 | 19.0 | 0.00 | 0.00 | 0.00 | 76 | 997.8 |
| 20260904081532 | 57 | 0 | 3.0 | 13.0 | 0.00 | 0.00 | 0.00 | 76 | 997.9 |
| 20260904081019 | 57 | 263 | 2.0 | 11.0 | 0.00 | 0.00 | 0.00 | 76 | 998.0 |
| 20260904080519 | 57 | 234 | 1.0 | 12.0 | 0.00 | 0.00 | 0.00 | 76 | 997.9 |
| 20260904080034 | 57 | 272 | 2.0 | 13.0 | 0.00 | 0.00 | 0.00 | 75 | 998.0 |
| 20260904075520 | 57 | 0 | 3.0 | 13.0 | 0.00 | 0.01 | 0.00 | 75 | 997.9 |
| 20260904075015 | 58 | 0 | 2.0 | 10.0 | 0.00 | 0.01 | 0.00 | 75 | 997.9 |
| 20260904074533 | 57 | 246 | 2.0 | 10.0 | 0.00 | 0.01 | 0.00 | 76 | 997.9 |
| 20260904074019 | 57 | 0 | 1.0 | 10.0 | 0.00 | 0.01 | 0.00 | 76 | 998.1 |
| 20260904073521 | 57 | 0 | 1.0 | 10.0 | 0.00 | 0.01 | 0.00 | 74 | 998.1 |
| 20260904073032 | 56 | 0 | 0.0 | 8.0 | 0.00 | 0.01 | 0.00 | 75 | 998.1 |
| 20260904072515 | 55 | 0 | 1.0 | 8.0 | 0.00 | 0.01 | 0.00 | 76 | 998.1 |
| 20260904072014 | 55 | 0 | 0.0 | 3.0 | 0.00 | 0.01 | 0.00 | 78 | 998.1 |
| 20260904071536 | 54 | 0 | 0.0 | 0.0 | 0.00 | 0.01 | 0.00 | 79 | 998.2 |
| 20260904071018 | 53 | 0 | 0.0 | 7.0 | 0.00 | 0.01 | 0.00 | 79 | 998.3 |
| 20260904070519 | 53 | 0 | 0.0 | 7.0 | 0.00 | 0.01 | 0.00 | 79 | 998.3 |
| 20260904070033 | 52 | 0 | 0.0 | 1.0 | 0.00 | 0.01 | 0.00 | 80 | 998.4 |
| 20260904065523 | 52 | 0 | 0.0 | 0.0 | 0.00 | 0.01 | 0.00 | 80 | 998.4 |
| 20260904065018 | 52 | 0 | 0.0 | 0.0 | 0.00 | 0.01 | 0.00 | 79 | 998.5 |
| 20260904064539 | 52 | 0 | 0.0 | 3.0 | 0.00 | 0.01 | 0.00 | 80 | 998.5 |
| 20260904064015 | 52 | 0 | 0.0 | 3.0 | 0.00 | 0.01 | 0.00 | 79 | 998.5 |
| 20260904063518 | 52 | 0 | 0.0 | 0.0 | 0.00 | 0.01 | 0.00 | 79 | 998.5 |
| 20260904063038 | 52 | 0 | 0.0 | 2.0 | 0.00 | 0.01 | 0.00 | 79 | 998.6 |
| 20260904062522 | 52 | 0 | 0.0 | 2.0 | 0.00 | 0.01 | 0.00 | 80 | 998.6 |
| 20260904062015 | 51 | 0 | 0.0 | 0.0 | 0.00 | 0.01 | 0.00 | 81 | 998.6 |
| 20260904061539 | 51 | 0 | 0.0 | 6.0 | 0.00 | 0.01 | 0.00 | 83 | 998.8 |
| 20260904061021 | 50 | 0 | 0.0 | 6.0 | 0.00 | 0.01 | 0.00 | 85 | 998.9 |
| 20260904060518 | 50 | 0 | 0.0 | 6.0 | 0.00 | 0.01 | 0.00 | 85 | 998.9 |
| 20260904060057 | 49 | 0 | 0.0 | 0.0 | 0.00 | 0.01 | 0.00 | 86 | 998.9 |
| 20260904055518 | 49 | 0 | 0.0 | 0.0 | 0.00 | 0.01 | 0.00 | 85 | 998.9 |
| 20260904055016 | 48 | 0 | 0.0 | 0.0 | 0.00 | 0.01 | 0.00 | 85 | 999.0 |
| 20260904054541 | 48 | 0 | 0.0 | 0.0 | 0.00 | 0.01 | 0.00 | 84 | 999.0 |
| 20260904054021 | 48 | 0 | 0.0 | 0.0 | 0.00 | 0.01 | 0.00 | 84 | 999.0 |
| 20260904053517 | 48 | 0 | 0.0 | 0.0 | 0.00 | 0.01 | 0.00 | 83 | 999.0 |
| 20260904053035 | 48 | 0 | 0.0 | 0.0 | 0.00 | 0.01 | 0.00 | 83 | 999.1 |
| 20260904052519 | 48 | 0 | 0.0 | 0.0 | 0.00 | 0.01 | 0.00 | 83 | 999.0 |
| 20260904052016 | 49 | 0 | 0.0 | 0.0 | 0.00 | 0.01 | 0.00 | 83 | 999.0 |
| 20260904051533 | 49 | 0 | 0.0 | 0.0 | 0.00 | 0.01 | 0.00 | 83 | 999.1 |
| 20260904051016 | 49 | 0 | 0.0 | 4.0 | 0.00 | 0.01 | 0.00 | 83 | 999.2 |
| 20260904050517 | 49 | 0 | 0.0 | 5.0 | 0.00 | 0.01 | 0.00 | 84 | 999.1 |
| 20260904050043 | 49 | 0 | 0.0 | 5.0 | 0.00 | 0.01 | 0.00 | 85 | 999.1 |
| 20260904045518 | 48 | 0 | 0.0 | 5.0 | 0.00 | 0.01 | 0.00 | 85 | 999.2 |
| 20260904045019 | 48 | 0 | 0.0 | 0.0 | 0.00 | 0.01 | 0.00 | 85 | 999.1 |
| 20260904044532 | 48 | 0 | 0.0 | 0.0 | 0.00 | 0.01 | 0.00 | 85 | 999.3 |
| 20260904044016 | 48 | 0 | 0.0 | 0.0 | 0.00 | 0.01 | 0.00 | 85 | 999.3 |
| 20260904043519 | 47 | 0 | 0.0 | 3.0 | 0.00 | 0.01 | 0.00 | 85 | 999.4 |
| 20260904043031 | 47 | 0 | 0.0 | 3.0 | 0.00 | 0.01 | 0.00 | 84 | 999.5 |
| 20260904042515 | 47 | 0 | 0.0 | 3.0 | 0.00 | 0.01 | 0.00 | 83 | 999.7 |
| 20260904042018 | 48 | 0 | 0.0 | 0.0 | 0.00 | 0.01 | 0.00 | 82 | 999.9 |
| 20260904041535 | 48 | 0 | 0.0 | 0.0 | 0.00 | 0.01 | 0.00 | 82 | 999.9 |
| 20260904041014 | 48 | 0 | 0.0 | 0.0 | 0.00 | 0.01 | 0.00 | 82 | 1000.0 |
| 20260904040514 | 49 | 0 | 0.0 | 0.0 | 0.00 | 0.01 | 0.00 | 82 | 1000.1 |
| 20260904040041 | 49 | 0 | 0.0 | 0.0 | 0.00 | 0.01 | 0.00 | 83 | 1000.2 |
| 20260904035517 | 49 | 0 | 0.0 | 0.0 | 0.00 | 0.01 | 0.00 | 84 | 1000.2 |
| 20260904035023 | 50 | 0 | 0.0 | 4.0 | 0.00 | 0.01 | 0.00 | 85 | 1000.2 |
| 20260904034532 | 50 | 0 | 0.0 | 11.0 | 0.00 | 0.01 | 0.00 | 85 | 1000.1 |
| 20260904034016 | 49 | 0 | 0.0 | 11.0 | 0.00 | 0.01 | 0.00 | 84 | 1000.1 |
| 20260904033518 | 49 | 250 | 0.0 | 3.0 | 0.00 | 0.01 | 0.00 | 82 | 1000.0 |
| 20260904033036 | 50 | 0 | 0.0 | 0.0 | 0.00 | 0.01 | 0.00 | 82 | 1000.1 |
| 20260904032517 | 50 | 0 | 0.0 | 0.0 | 0.00 | 0.01 | 0.00 | 82 | 1000.2 |
| 20260904032015 | 51 | 0 | 0.0 | 0.0 | 0.00 | 0.01 | 0.00 | 81 | 1000.3 |
| 20260904031533 | 51 | 0 | 0.0 | 0.0 | 0.00 | 0.01 | 0.00 | 82 | 1000.3 |
| 20260904031017 | 52 | 0 | 0.0 | 0.0 | 0.00 | 0.01 | 0.00 | 82 | 1000.4 |
| 20260904030514 | 53 | 0 | 0.0 | 0.0 | 0.00 | 0.01 | 0.00 | 81 | 1000.5 |
| 20260904030038 | 53 | 0 | 0.0 | 0.0 | 0.00 | 0.01 | 0.00 | 82 | 1000.3 |
| 20260904025516 | 54 | 0 | 0.0 | 0.0 | 0.00 | 0.01 | 0.00 | 82 | 1000.3 |
| 20260904025017 | 54 | 0 | 0.0 | 0.0 | 0.00 | 0.01 | 0.00 | 83 | 1000.3 |
| 20260904024535 | 54 | 0 | 0.0 | 0.0 | 0.00 | 0.01 | 0.00 | 83 | 1000.3 |
| 20260904024017 | 54 | 0 | 0.0 | 0.0 | 0.00 | 0.01 | 0.00 | 84 | 1000.3 |
| 20260904023518 | 54 | 0 | 0.0 | 0.0 | 0.00 | 0.01 | 0.00 | 83 | 1000.5 |
| 20260904023039 | 54 | 0 | 0.0 | 0.0 | 0.00 | 0.01 | 0.00 | 83 | 1000.4 |
| 20260904022518 | 54 | 0 | 0.0 | 0.0 | 0.00 | 0.01 | 0.00 | 83 | 1000.5 |
| 20260904022016 | 54 | 0 | 0.0 | 0.0 | 0.00 | 0.01 | 0.00 | 83 | 1000.4 |
| 20260904021546 | 55 | 0 | 0.0 | 0.0 | 0.00 | 0.01 | 0.00 | 83 | 1000.6 |
| 20260904021016 | 54 | 0 | 0.0 | 0.0 | 0.00 | 0.01 | 0.00 | 83 | 1000.6 |
| 20260904020516 | 54 | 0 | 0.0 | 0.0 | 0.00 | 0.01 | 0.00 | 83 | 1000.7 |
| 20260904020033 | 54 | 0 | 0.0 | 0.0 | 0.00 | 0.01 | 0.00 | 84 | 1000.7 |
| 20260904015518 | 54 | 0 | 0.0 | 5.0 | 0.00 | 0.01 | 0.00 | 84 | 1000.7 |
| 20260904015021 | 54 | 0 | 0.0 | 5.0 | 0.00 | 0.01 | 0.00 | 84 | 1000.7 |
| 20260904014532 | 53 | 0 | 0.0 | 5.0 | 0.00 | 0.01 | 0.00 | 85 | 1000.7 |
| 20260904014018 | 53 | 0 | 0.0 | 3.0 | 0.00 | 0.01 | 0.00 | 85 | 1000.7 |
| 20260904013518 | 52 | 0 | 0.0 | 6.0 | 0.00 | 0.01 | 0.00 | 84 | 1000.7 |
| 20260904013045 | 52 | 0 | 0.0 | 6.0 | 0.00 | 0.01 | 0.00 | 85 | 1000.8 |
| 20260904012518 | 52 | 160 | 0.0 | 4.0 | 0.00 | 0.01 | 0.00 | 82 | 1000.8 |
| 20260904012016 | 52 | 0 | 0.0 | 0.0 | 0.00 | 0.01 | 0.00 | 81 | 1000.9 |
| 20260904011535 | 53 | 0 | 0.0 | 0.0 | 0.00 | 0.01 | 0.00 | 80 | 1001.0 |
| 20260904011017 | 53 | 0 | 0.0 | 0.0 | 0.00 | 0.01 | 0.00 | 81 | 1001.1 |
| 20260904010515 | 54 | 0 | 0.0 | 0.0 | 0.00 | 0.01 | 0.00 | 81 | 1001.2 |
| 20260904010034 | 54 | 0 | 0.0 | 0.0 | 0.00 | 0.01 | 0.00 | 81 | 1001.4 |
| 20260904005516 | 54 | 0 | 0.0 | 3.0 | 0.00 | 0.07 | 0.00 | 82 | 1001.5 |
| 20260904005020 | 54 | 0 | 0.0 | 3.0 | 0.00 | 0.07 | 0.00 | 81 | 1001.5 |
| 20260904004533 | 54 | 0 | 0.0 | 3.0 | 0.00 | 0.07 | 0.00 | 82 | 1001.6 |
| 20260904004015 | 55 | 0 | 0.0 | 6.0 | 0.00 | 0.07 | 0.00 | 81 | 1001.6 |
| 20260904003515 | 55 | 0 | 0.0 | 6.0 | 0.00 | 0.07 | 0.00 | 81 | 1001.7 |
| 20260904003032 | 55 | 0 | 0.0 | 1.0 | 0.00 | 0.07 | 0.00 | 81 | 1001.7 |
| 20260904002519 | 55 | 0 | 0.0 | 2.0 | 0.00 | 0.07 | 0.00 | 81 | 1001.7 |
| 20260904002017 | 55 | 0 | 0.0 | 2.0 | 0.00 | 0.07 | 0.00 | 81 | 1001.9 |
| 20260904001552 | 54 | 0 | 0.0 | 2.0 | 0.00 | 0.07 | 0.00 | 81 | 1001.9 |
| 20260904001018 | 54 | 0 | 0.0 | 0.0 | 0.00 | 0.07 | 0.00 | 81 | 1001.9 |
| 20260904000520 | 54 | 0 | 0.0 | 0.0 | 0.00 | 0.07 | 0.00 | 82 | 1002.0 |
| 20260904000033 | 54 | 0 | 0.0 | 0.0 | 0.00 | 0.07 | 0.00 | 82 | 1002.1 |
| 20260903235516 | 54 | 0 | 0.0 | 0.0 | 0.00 | 0.20 | 0.00 | 82 | 1002.1 |
| 20260903235016 | 54 | 0 | 0.0 | 3.0 | 0.00 | 0.20 | 0.00 | 81 | 1002.3 |
| 20260903234534 | 54 | 0 | 0.0 | 3.0 | 0.00 | 0.20 | 0.00 | 81 | 1002.4 |
| 20260903234019 | 54 | 0 | 0.0 | 8.0 | 0.00 | 0.20 | 0.00 | 81 | 1002.5 |
| 20260903233517 | 54 | 0 | 0.0 | 8.0 | 0.00 | 0.20 | 0.00 | 82 | 1002.7 |
| 20260903233041 | 54 | 0 | 0.0 | 0.0 | 0.00 | 0.20 | 0.00 | 82 | 1002.8 |
| 20260903232519 | 54 | 0 | 0.0 | 0.0 | 0.00 | 0.20 | 0.00 | 81 | 1002.8 |
| 20260903232018 | 54 | 0 | 0.0 | 4.0 | 0.00 | 0.20 | 0.00 | 81 | 1002.8 |
| 20260903231534 | 54 | 0 | 0.0 | 4.0 | 0.00 | 0.20 | 0.00 | 81 | 1002.8 |
| 20260903231018 | 54 | 0 | 0.0 | 0.0 | 0.00 | 0.20 | 0.00 | 80 | 1002.9 |
| 20260903230519 | 54 | 0 | 0.0 | 3.0 | 0.00 | 0.20 | 0.00 | 80 | 1002.9 |
| 20260903230036 | 54 | 0 | 0.0 | 9.0 | 0.00 | 0.20 | 0.00 | 80 | 1003.0 |
| 20260903225516 | 54 | 0 | 0.0 | 9.0 | 0.00 | 0.20 | 0.20 | 80 | 1003.0 |
| 20260903225019 | 54 | 0 | 0.0 | 9.0 | 0.00 | 0.20 | 0.20 | 80 | 1003.2 |
| 20260903224537 | 54 | 0 | 0.0 | 7.0 | 0.00 | 0.20 | 0.20 | 80 | 1003.2 |
| 20260903224019 | 54 | 0 | 0.0 | 3.0 | 0.00 | 0.20 | 0.20 | 80 | 1003.4 |
| 20260903223515 | 54 | 0 | 0.0 | 3.0 | 0.00 | 0.20 | 0.20 | 79 | 1003.4 |
| 20260903223033 | 54 | 0 | 0.0 | 0.0 | 0.00 | 0.20 | 0.20 | 79 | 1003.4 |
| 20260903222518 | 55 | 0 | 0.0 | 6.0 | 0.00 | 0.20 | 0.20 | 78 | 1003.4 |
| 20260903222016 | 55 | 0 | 0.0 | 6.0 | 0.00 | 0.20 | 0.20 | 78 | 1003.3 |
| 20260903221533 | 55 | 0 | 0.0 | 11.0 | 0.00 | 0.20 | 0.20 | 78 | 1003.5 |
| 20260903221015 | 55 | 0 | 1.0 | 11.0 | 0.00 | 0.20 | 0.20 | 78 | 1003.5 |
| 20260903220518 | 55 | 0 | 1.0 | 11.0 | 0.00 | 0.20 | 0.20 | 79 | 1003.7 |
| 20260903220034 | 55 | 255 | 3.0 | 11.0 | 0.00 | 0.20 | 0.20 | 79 | 1003.7 |
| 20260903215518 | 55 | 0 | 0.0 | 11.0 | 0.00 | 0.20 | 0.20 | 78 | 1003.9 |
| 20260903215016 | 55 | 0 | 0.0 | 11.0 | 0.00 | 0.20 | 0.20 | 78 | 1003.8 |
| 20260903214534 | 55 | 0 | 2.0 | 11.0 | 0.00 | 0.20 | 0.20 | 78 | 1003.9 |
| 20260903214021 | 56 | 0 | 0.0 | 7.0 | 0.00 | 0.20 | 0.20 | 78 | 1004.0 |
| 20260903213518 | 56 | 254 | 0.0 | 10.0 | 0.00 | 0.20 | 0.20 | 78 | 1004.1 |
| 20260903213046 | 56 | 281 | 1.0 | 10.0 | 0.00 | 0.20 | 0.20 | 78 | 1004.0 |
| 20260903212518 | 56 | 245 | 1.0 | 7.0 | 0.00 | 0.20 | 0.20 | 79 | 1004.0 |
| 20260903212016 | 56 | 226 | 0.0 | 7.0 | 0.00 | 0.20 | 0.20 | 79 | 1003.8 |
| 20260903211534 | 56 | 0 | 1.0 | 7.0 | 0.00 | 0.20 | 0.20 | 79 | 1004.0 |
| 20260903211018 | 56 | 256 | 1.0 | 8.0 | 0.00 | 0.20 | 0.20 | 79 | 1004.0 |
| 20260903210519 | 56 | 0 | 1.0 | 8.0 | 0.00 | 0.20 | 0.20 | 79 | 1004.0 |
| 20260903210035 | 55 | 0 | 0.0 | 7.0 | 0.00 | 0.20 | 0.20 | 80 | 1004.0 |
| 20260903205518 | 55 | 0 | 0.0 | 6.0 | 0.00 | 0.20 | 0.20 | 81 | 1003.9 |
| 20260903205020 | 55 | 0 | 0.0 | 2.0 | 0.00 | 0.20 | 0.20 | 82 | 1004.1 |
| 20260903204533 | 55 | 0 | 0.0 | 2.0 | 0.00 | 0.20 | 0.20 | 82 | 1004.3 |
| 20260903204015 | 55 | 0 | 0.0 | 0.0 | 0.00 | 0.20 | 0.20 | 82 | 1004.4 |
| 20260903203516 | 55 | 0 | 0.0 | 0.0 | 0.00 | 0.20 | 0.20 | 82 | 1004.4 |
| 20260903203034 | 55 | 0 | 0.0 | 0.0 | 0.00 | 0.20 | 0.20 | 82 | 1004.4 |
| 20260903202518 | 55 | 0 | 0.0 | 0.0 | 0.00 | 0.20 | 0.20 | 82 | 1004.5 |
| 20260903202016 | 55 | 0 | 0.0 | 0.0 | 0.00 | 0.20 | 0.20 | 82 | 1004.5 |
| 20260903201535 | 55 | 0 | 0.0 | 3.0 | 0.00 | 0.20 | 0.20 | 82 | 1004.6 |
| 20260903201020 | 54 | 0 | 0.0 | 3.0 | 0.00 | 0.20 | 0.20 | 82 | 1004.6 |
| 20260903200518 | 54 | 0 | 0.0 | 2.0 | 0.00 | 0.20 | 0.20 | 82 | 1004.6 |
| 20260903200035 | 54 | 0 | 0.0 | 0.0 | 0.00 | 0.20 | 0.20 | 82 | 1004.6 |